TimeCST,TemperatureF,Dew PointF,Humidity,Sea Level PressureIn,VisibilityMPH,Wind Direction,Wind SpeedMPH,Gust SpeedMPH,PrecipitationIn,Events,Conditions,WindDirDegrees,DateUTC
12:12 AM,24.8,19.4,80,29.95,3.0,Calm,Calm,-,N/A,,Haze,0,2013-02-10 06:12:00
12:31 AM,24.8,19.4,80,29.95,3.0,Calm,Calm,-,N/A,,Haze,0,2013-02-10 06:31:00
12:51 AM,24.8,19.4,80,29.94,3.0,Calm,Calm,-,N/A,,Haze,0,2013-02-10 06:51:00
1:12 AM,24.8,19.4,80,29.94,3.0,Calm,Calm,-,N/A,,Haze,0,2013-02-10 07:12:00
1:31 AM,24.8,19.4,80,29.93,3.0,Calm,Calm,-,N/A,,Haze,0,2013-02-10 07:31:00
1:51 AM,24.8,19.4,80,29.93,3.0,Calm,Calm,-,N/A,,Haze,0,2013-02-10 07:51:00
2:11 AM,24.8,19.4,80,29.93,3.0,Calm,Calm,-,N/A,,Haze,0,2013-02-10 08:11:00
2:31 AM,24.8,19.4,80,29.94,3.0,Calm,Calm,-,N/A,,Haze,0,2013-02-10 08:31:00
2:51 AM,24.8,19.4,80,29.92,3.0,Calm,Calm,-,N/A,,Haze,0,2013-02-10 08:51:00
3:11 AM,24.8,19.4,80,29.92,3.0,Calm,Calm,-,N/A,,Haze,0,2013-02-10 09:11:00
3:32 AM,24.8,19.4,80,29.91,3.0,Calm,Calm,-,N/A,,Haze,0,2013-02-10 09:32:00
3:51 AM,24.8,19.4,80,29.90,3.0,ESE,3.5,-,N/A,,Haze,110,2013-02-10 09:51:00
4:11 AM,24.8,19.4,80,29.90,3.0,East,3.5,-,N/A,,Haze,100,2013-02-10 10:11:00
4:32 AM,24.8,19.4,80,29.89,3.0,East,3.5,-,N/A,,Haze,90,2013-02-10 10:32:00
4:51 AM,24.8,19.4,80,29.88,3.0,East,4.6,-,N/A,,Haze,100,2013-02-10 10:51:00
5:11 AM,24.8,19.4,80,29.87,4.0,East,6.9,-,N/A,,Haze,90,2013-02-10 11:11:00
5:32 AM,24.8,19.4,80,29.86,4.0,ESE,4.6,-,N/A,,Haze,110,2013-02-10 11:32:00
5:51 AM,24.8,19.4,80,29.85,4.0,East,5.8,-,N/A,,Haze,90,2013-02-10 11:51:00
6:11 AM,24.8,19.4,80,29.86,5.0,ESE,4.6,-,N/A,,Haze,110,2013-02-10 12:11:00
6:32 AM,24.8,19.4,80,29.86,5.0,East,6.9,-,N/A,,Haze,100,2013-02-10 12:32:00
6:51 AM,24.8,19.4,80,29.85,5.0,East,6.9,-,N/A,,Haze,100,2013-02-10 12:51:00
7:11 AM,24.8,19.4,80,29.83,5.0,East,8.1,-,N/A,,Haze,80,2013-02-10 13:11:00
7:32 AM,24.8,19.4,80,29.82,5.0,East,8.1,-,N/A,,Haze,80,2013-02-10 13:32:00
7:51 AM,24.8,19.4,80,29.80,3.0,ENE,9.2,-,N/A,,Haze,70,2013-02-10 13:51:00
8:11 AM,24.8,19.4,80,29.80,3.0,East,8.1,-,N/A,,Haze,90,2013-02-10 14:11:00
8:31 AM,24.8,19.4,80,29.80,4.0,East,10.4,-,N/A,,Haze,80,2013-02-10 14:31:00
8:51 AM,24.8,19.4,80,29.78,4.0,ENE,10.4,19.6,N/A,,Haze,60,2013-02-10 14:51:00
9:11 AM,24.8,19.4,80,29.78,5.0,East,17.3,26.5,N/A,,Haze,80,2013-02-10 15:11:00
9:31 AM,24.8,19.4,80,29.77,7.0,East,17.3,-,N/A,,Overcast,80,2013-02-10 15:31:00
9:51 AM,24.8,19.4,80,29.78,7.0,East,18.4,25.3,N/A,,Overcast,80,2013-02-10 15:51:00
10:11 AM,26.6,21.2,80,29.77,5.0,East,17.3,24.2,N/A,,Haze,80,2013-02-10 16:11:00
10:31 AM,26.6,21.2,80,29.76,7.0,East,19.6,26.5,N/A,,Overcast,80,2013-02-10 16:31:00
10:51 AM,26.6,19.4,74,29.73,10.0,ENE,19.6,26.5,N/A,,Overcast,60,2013-02-10 16:51:00
11:11 AM,26.6,19.4,74,29.71,5.0,ENE,27.6,34.5,N/A,,Haze,70,2013-02-10 17:11:00
11:31 AM,24.8,19.4,80,29.70,5.0,ENE,21.9,34.5,N/A,,Haze,60,2013-02-10 17:31:00
11:51 AM,26.6,19.4,74,29.68,4.0,ENE,21.9,34.5,N/A,,Haze,70,2013-02-10 17:51:00
12:11 PM,26.6,19.4,74,29.65,4.0,ENE,26.5,34.5,N/A,,Haze,70,2013-02-10 18:11:00
12:32 PM,26.6,21.2,80,29.63,5.0,ENE,23.0,35.7,N/A,,Haze,60,2013-02-10 18:32:00
12:51 PM,26.6,21.2,80,29.60,7.0,NE,19.6,33.4,N/A,,Overcast,50,2013-02-10 18:51:00
1:11 PM,26.6,21.2,80,29.59,7.0,ENE,20.7,31.1,N/A,,Overcast,60,2013-02-10 19:11:00
1:32 PM,26.6,21.2,80,29.57,5.0,ENE,19.6,32.2,N/A,,Haze,60,2013-02-10 19:32:00
1:51 PM,26.6,21.2,80,29.55,1.5,NE,16.1,31.1,N/A,Snow,Light Snow,50,2013-02-10 19:51:00
2:11 PM,26.6,21.2,80,29.53,0.8,NE,19.6,26.5,N/A,Snow,Light Snow,50,2013-02-10 20:11:00
2:32 PM,26.6,21.2,80,29.50,0.2,NE,18.4,27.6,0.02,Snow,Snow,50,2013-02-10 20:32:00
2:51 PM,26.6,21.2,80,29.48,0.2,NE,16.1,27.6,0.04,Snow,Snow,50,2013-02-10 20:51:00
3:11 PM,26.6,21.2,80,29.48,0.2,ENE,19.6,31.1,0.02,Snow,Snow,60,2013-02-10 21:11:00
3:32 PM,26.6,21.2,80,29.49,0.5,ENE,16.1,29.9,0.04,Snow,Light Snow,70,2013-02-10 21:32:00
3:51 PM,26.6,23.0,86,29.48,0.2,ENE,19.6,27.6,0.05,Snow,Snow,60,2013-02-10 21:51:00
4:11 PM,28.4,23.0,80,29.47,0.2,ENE,15.0,29.9,N/A,Snow,Snow,60,2013-02-10 22:11:00
4:31 PM,28.4,23.0,80,29.46,0.2,ENE,20.7,29.9,N/A,Snow,Snow,60,2013-02-10 22:31:00
4:51 PM,28.4,23.0,80,29.45,0.2,ENE,18.4,27.6,N/A,Snow,Snow,60,2013-02-10 22:51:00
5:11 PM,28.4,24.8,86,29.44,0.2,ENE,19.6,28.8,N/A,Snow,Snow,60,2013-02-10 23:11:00
5:31 PM,28.4,24.8,86,29.44,0.5,ENE,19.6,31.1,0.02,Snow,Snow,60,2013-02-10 23:31:00
5:51 PM,28.4,24.8,86,29.43,0.5,ENE,15.0,33.4,0.03,Snow,Snow,60,2013-02-10 23:51:00
6:12 PM,28.4,24.8,86,29.43,0.8,ENE,19.6,27.6,0.02,Snow,Snow,60,2013-02-11 00:12:00
6:31 PM,30.2,24.8,80,29.41,1.5,ENE,19.6,25.3,0.04,Snow,Light Snow,60,2013-02-11 00:31:00
6:51 PM,30.2,24.8,80,29.40,1.8,ENE,18.4,27.6,0.05,Snow,Light Snow,60,2013-02-11 00:51:00
7:11 PM,30.2,24.8,80,29.40,1.5,ENE,15.0,26.5,0.01,Snow,Light Snow,60,2013-02-11 01:11:00
7:31 PM,30.2,24.8,80,29.39,2.0,ENE,20.7,33.4,0.02,Snow,Light Snow,70,2013-02-11 01:31:00
7:51 PM,30.2,24.8,80,29.38,2.0,ENE,18.4,32.2,0.03,Snow,Light Snow,60,2013-02-11 01:51:00
8:11 PM,30.2,24.8,80,29.37,2.0,ENE,19.6,31.1,0.01,Snow,Light Snow,60,2013-02-11 02:11:00
8:31 PM,30.2,24.8,80,29.37,3.0,ENE,16.1,27.6,0.01,Snow,Light Snow,60,2013-02-11 02:31:00
8:51 PM,30.2,24.8,80,29.36,5.0,ENE,20.7,29.9,0.02,,Haze,60,2013-02-11 02:51:00
9:11 PM,30.2,24.8,80,29.35,5.0,NE,16.1,27.6,N/A,,Haze,50,2013-02-11 03:11:00
9:31 PM,30.2,24.8,80,29.35,5.0,NE,13.8,25.3,0.01,,Haze,50,2013-02-11 03:31:00
9:52 PM,30.2,26.6,86,29.35,7.0,ENE,13.8,21.9,0.01,,Overcast,70,2013-02-11 03:52:00
10:11 PM,30.2,24.8,80,29.34,5.0,NE,15.0,26.5,N/A,,Haze,50,2013-02-11 04:11:00
10:31 PM,30.2,26.6,86,29.34,3.0,ENE,10.4,16.1,N/A,Snow,Light Snow,60,2013-02-11 04:31:00
10:51 PM,30.2,26.6,86,29.33,2.5,ENE,17.3,23.0,0.01,Snow,Light Snow,60,2013-02-11 04:51:00
11:11 PM,30.2,26.6,86,29.33,3.0,ENE,13.8,20.7,N/A,Snow,Light Snow,70,2013-02-11 05:11:00
11:31 PM,30.2,26.6,86,29.32,4.0,ENE,11.5,19.6,N/A,,Overcast,60,2013-02-11 05:31:00
11:51 PM,30.2,26.6,86,29.31,3.0,NE,9.2,17.3,N/A,Snow,Light Snow,50,2013-02-11 05:51:00